When you browse on this site, cookies collect data to enhance your experience and personalize the content and advertising you see.
Visit our Privacy Policy to learn more. By continuing to use the site, you agree to this use of cookies and data.
  • în România
  • Lista ţărilor
  • Pe 7 zile
  • Temperatura apei
  • Hartă satelitară
  • Meteo pe hartă
  • Widget-uri
  • user-avatar
    Intrare

    Meteo pe oră la Bezivanovka

    Astăzi, 25 Martie, Luni

    Timp Temperatura Precipitaţii Vânt Presiune Umiditate
    00:00 -1°C° 0 mm 4 m/s 729 mmHg 75%
    01:00 -1°C° 0 mm 4 m/s 729 mmHg 76%
    02:00 -1°C° 0 mm 4 m/s 729 mmHg 78%
    03:00 -2°C° 0 mm 4 m/s 729 mmHg 79%
    04:00 -1°C° 0 mm 3 m/s 729 mmHg 80%
    05:00 -1°C° 0 mm 3 m/s 729 mmHg 82%
    06:00 -1°C° 0 mm 3 m/s 729 mmHg 84%
    07:00 0°C° 0 mm 3 m/s 729 mmHg 76%
    08:00 +1°C° 0 mm 3 m/s 729 mmHg 69%
    09:00 +3°C° 0 mm 3 m/s 729 mmHg 61%
    10:00 +4°C° 0 mm 3 m/s 729 mmHg 56%
    11:00 +5°C° 0 mm 3 m/s 728 mmHg 51%
    12:00 +7°C° 0 mm 2 m/s 728 mmHg 45%
    13:00 +8°C° 0 mm 2 m/s 728 mmHg 44%
    14:00 +9°C° 0 mm 2 m/s 728 mmHg 43%
    15:00 +10°C° 0 mm 1 m/s 727 mmHg 41%
    16:00 +10°C° 0 mm 1 m/s 727 mmHg 45%
    17:00 +9°C° 0 mm 1 m/s 728 mmHg 48%
    18:00 +9°C° 0 mm 1 m/s 728 mmHg 51%
    19:00 +7°C° 0 mm 2 m/s 728 mmHg 55%
    20:00 +6°C° 0 mm 2 m/s 728 mmHg 60%
    21:00 +5°C° 0 mm 2 m/s 728 mmHg 64%
    22:00 +5°C° 0 mm 2 m/s 728 mmHg 66%
    23:00 +4°C° 0 mm 2 m/s 728 mmHg 69%

    Mâine, 26 Martie, Marţi

    Timp Temperatura Precipitaţii Vânt Presiune Umiditate
    00:00 +3°C° 0 mm 2 m/s 728 mmHg 72%
    01:00 +3°C° 0 mm 2 m/s 728 mmHg 74%
    02:00 +3°C° 0 mm 2 m/s 728 mmHg 75%
    03:00 +2°C° 0 mm 2 m/s 727 mmHg 77%
    04:00 +2°C° 0 mm 2 m/s 727 mmHg 78%
    05:00 +1°C° 0 mm 3 m/s 727 mmHg 78%
    06:00 0°C° 0 mm 3 m/s 727 mmHg 79%
    07:00 +1°C° 0 mm 4 m/s 727 mmHg 71%
    08:00 +3°C° 0 mm 5 m/s 727 mmHg 64%
    09:00 +4°C° 0 mm 6 m/s 727 mmHg 56%
    10:00 +7°C° 0 mm 6 m/s 727 mmHg 54%
    11:00 +8°C° 0 mm 6 m/s 726 mmHg 51%
    12:00 +9°C° 0 mm 6 m/s 726 mmHg 49%
    13:00 +10°C° 0 mm 6 m/s 726 mmHg 48%
    14:00 +10°C° 0 mm 6 m/s 725 mmHg 48%
    15:00 +11°C° 0 mm 6 m/s 725 mmHg 47%
    16:00 +10°C° 0 mm 6 m/s 725 mmHg 51%
    17:00 +9°C° 0 mm 5 m/s 725 mmHg 54%
    18:00 +9°C° 0 mm 5 m/s 725 mmHg 58%
    19:00 +7°C° 0 mm 4 m/s 725 mmHg 63%
    20:00 +6°C° 0 mm 4 m/s 725 mmHg 68%
    21:00 +5°C° 0 mm 3 m/s 725 mmHg 72%
    22:00 +4°C° 0 mm 3 m/s 725 mmHg 75%
    23:00 +3°C° 0 mm 3 m/s 725 mmHg 77%

    Poimâine, 27 Martie, Miercuri

    Timp Temperatura Precipitaţii Vânt Presiune Umiditate
    00:00 +4°C° 0 mm 2 m/s 725 mmHg 79%
    01:00 +3°C° 0 mm 2 m/s 725 mmHg 80%
    02:00 +4°C° 0 mm 1 m/s 725 mmHg 81%
    03:00 +3°C° 0 mm 1 m/s 725 mmHg 83%
    04:00 +3°C° 0 mm 1 m/s 725 mmHg 83%
    05:00 +2°C° 0 mm 0 m/s 725 mmHg 84%
    06:00 +2°C° 0 mm 0 m/s 725 mmHg 85%
    07:00 +5°C° 0 mm 2 m/s 725 mmHg 76%
    08:00 +7°C° 0 mm 3 m/s 725 mmHg 67%
    09:00 +8°C° 0 mm 4 m/s 726 mmHg 59%
    10:00 +11°C° 0 mm 4 m/s 726 mmHg 53%
    11:00 +12°C° 0 mm 5 m/s 726 mmHg 47%
    12:00 +14°C° 0 mm 5 m/s 726 mmHg 41%
    13:00 +14°C° 0 mm 5 m/s 726 mmHg 40%
    14:00 +15°C° 0 mm 5 m/s 726 mmHg 40%
    15:00 +15°C° 0 mm 5 m/s 726 mmHg 39%
    16:00 +14°C° 0 mm 4 m/s 726 mmHg 44%
    17:00 +13°C° 0 mm 4 m/s 727 mmHg 49%
    18:00 +13°C° 0 mm 3 m/s 727 mmHg 54%
    19:00 +12°C° 0 mm 3 m/s 727 mmHg 57%
    20:00 +11°C° 0 mm 3 m/s 728 mmHg 60%
    21:00 +12°C° 0 mm 2 m/s 729 mmHg 64%
    22:00 +10°C° 0.1 mm 3 m/s 729 mmHg 68%
    23:00 +8°C° 0.1 mm 4 m/s 729 mmHg 72%

    28 Martie, Joi

    Timp Temperatura Precipitaţii Vânt Presiune Umiditate
    00:00 +8°C° 0.1 mm 4 m/s 729 mmHg 76%
    01:00 +7°C° 0.1 mm 4 m/s 729 mmHg 74%
    02:00 +6°C° 0.1 mm 4 m/s 729 mmHg 72%
    03:00 +6°C° 0.1 mm 5 m/s 729 mmHg 70%
    04:00 +5°C° 0 mm 4 m/s 730 mmHg 66%
    05:00 +4°C° 0 mm 4 m/s 730 mmHg 62%
    06:00 +4°C° 0 mm 4 m/s 730 mmHg 58%
    07:00 +4°C° 0 mm 4 m/s 730 mmHg 56%
    08:00 +5°C° 0 mm 5 m/s 731 mmHg 55%
    09:00 +5°C° 0 mm 5 m/s 731 mmHg 53%
    10:00 +6°C° 0 mm 5 m/s 731 mmHg 51%
    11:00 +7°C° 0 mm 5 m/s 731 mmHg 50%
    12:00 +8°C° 0 mm 5 m/s 730 mmHg 48%
    13:00 +8°C° 0 mm 5 m/s 730 mmHg 50%
    14:00 +7°C° 0 mm 5 m/s 730 mmHg 52%
    15:00 +7°C° 0 mm 5 m/s 730 mmHg 54%
    16:00 +6°C° 0.3 mm 5 m/s 730 mmHg 57%
    17:00 +6°C° 0.3 mm 4 m/s 731 mmHg 59%
    18:00 +5°C° 0.3 mm 4 m/s 731 mmHg 62%
    19:00 +5°C° 0.3 mm 4 m/s 731 mmHg 65%
    20:00 +4°C° 0.3 mm 3 m/s 732 mmHg 67%
    21:00 +4°C° 0.3 mm 3 m/s 732 mmHg 70%
    22:00 +3°C° 0.4 mm 3 m/s 732 mmHg 72%
    23:00 +2°C° 0.4 mm 3 m/s 732 mmHg 74%

    29 Martie, Vineri

    Timp Temperatura Precipitaţii Vânt Presiune Umiditate
    00:00 +1°C° 0.4 mm 4 m/s 732 mmHg 76%
    01:00 +1°C° 0.3 mm 3 m/s 732 mmHg 77%
    02:00 +1°C° 0.3 mm 3 m/s 733 mmHg 78%
    03:00 +1°C° 0.3 mm 3 m/s 733 mmHg 79%
    04:00 +1°C° 0.2 mm 2 m/s 733 mmHg 80%
    05:00 +1°C° 0.2 mm 2 m/s 733 mmHg 80%
    06:00 +2°C° 0.2 mm 1 m/s 733 mmHg 80%
    07:00 +2°C° 0 mm 1 m/s 733 mmHg 74%
    08:00 +3°C° 0 mm 1 m/s 734 mmHg 69%
    09:00 +3°C° 0 mm 1 m/s 734 mmHg 63%
    10:00 +4°C° 0 mm 1 m/s 734 mmHg 60%
    11:00 +5°C° 0 mm 1 m/s 733 mmHg 56%
    12:00 +5°C° 0 mm 0 m/s 733 mmHg 53%
    13:00 +5°C° 0 mm 0 m/s 733 mmHg 51%
    14:00 +6°C° 0 mm 0 m/s 732 mmHg 49%
    15:00 +7°C° 0 mm 1 m/s 732 mmHg 47%
    16:00 +7°C° 0 mm 1 m/s 732 mmHg 48%
    17:00 +6°C° 0 mm 1 m/s 731 mmHg 49%
    18:00 +6°C° 0 mm 1 m/s 731 mmHg 50%
    19:00 +5°C° 0 mm 1 m/s 731 mmHg 55%
    20:00 +5°C° 0 mm 1 m/s 732 mmHg 60%
    21:00 +3°C° 0 mm 2 m/s 732 mmHg 65%
    22:00 +2°C° 0 mm 2 m/s 731 mmHg 67%
    23:00 +2°C° 0 mm 2 m/s 731 mmHg 68%

    30 Martie, Sâmbătă

    Timp Temperatura Precipitaţii Vânt Presiune Umiditate
    00:00 +1°C° 0 mm 2 m/s 731 mmHg 69%
    01:00 +1°C° 0 mm 2 m/s 730 mmHg 70%
    02:00 +1°C° 0 mm 2 m/s 730 mmHg 71%
    03:00 -1°C° 0 mm 2 m/s 730 mmHg 72%
    04:00 -1°C° 0 mm 2 m/s 730 mmHg 73%
    05:00 -1°C° 0 mm 2 m/s 729 mmHg 74%
    06:00 -1°C° 0 mm 2 m/s 729 mmHg 74%
    07:00 +1°C° 0 mm 3 m/s 729 mmHg 67%
    08:00 +1°C° 0 mm 4 m/s 729 mmHg 60%
    09:00 +4°C° 0 mm 4 m/s 729 mmHg 52%
    10:00 +3°C° 0 mm 5 m/s 729 mmHg 56%
    11:00 +5°C° 0 mm 5 m/s 729 mmHg 59%
    12:00 +4°C° 0 mm 6 m/s 729 mmHg 62%
    13:00 +5°C° 0.1 mm 5 m/s 729 mmHg 61%
    14:00 +5°C° 0.1 mm 4 m/s 729 mmHg 59%
    15:00 +5°C° 0.1 mm 4 m/s 729 mmHg 58%
    16:00 +5°C° 0 mm 3 m/s 729 mmHg 58%
    17:00 +5°C° 0 mm 3 m/s 730 mmHg 58%
    18:00 +6°C° 0 mm 2 m/s 730 mmHg 58%
    19:00 +4°C° 0 mm 2 m/s 730 mmHg 64%
    20:00 +3°C° 0 mm 2 m/s 731 mmHg 69%
    21:00 +2°C° 0 mm 2 m/s 731 mmHg 75%
    22:00 +3°C° 0 mm 1 m/s 731 mmHg 78%
    23:00 +2°C° 0 mm 1 m/s 731 mmHg 82%
    Arată mai mult